This demonstration page uses our WeatherBlox Daily Observations layout. Learn more.

38.88101, -77.10428

Hourly Observations for January 9, 2016

Temp ( °F °C ) Dew Point ( °F °C ) Humidity (%) Winds ( mph kmh ) Pressure ( in mb ) Visibility ( mi km ) Precip ( " mm )
12:43 am 00:43 Cloudy 43 6 39 4 87 87 N 3 6 30.12 1020 10 16.09344 0 0
12:52 am 00:52 Cloudy 43 6 39 4 87 87 N 5 7 30.12 1020 10 16.09344 0 0
1:52 am 01:52 Cloudy 43 6 39 4 87 87 N 5 7 30.12 1020 10 16.09344 0 0
2:40 am 02:40 Cloudy 43 6 39 4 87 87 NNE 5 7 30.12 1020 10 16.09344 0 0
2:52 am 02:52 Cloudy 43 6 39 4 87 87 NNE 5 7 30.12 1020 10 16.09344 0 0
3:52 am 03:52 Cloudy 43 6 37 3 81 81 NE 5 7 30.12 1020 10 16.09344 0 0
4:52 am 04:52 Cloudy with Light Drizzle 43 6 39 4 87 87 NNE 6 9 30.12 1020 4 6.437376 0.001 0.001
5:14 am 05:14 Cloudy with Light Drizzle 43 6 39 4 87 87 NNE 3 6 30.12 1020 3 4.828032 0 0
5:21 am 05:21 Cloudy with Light Drizzle 43 6 39 4 87 87 N 5 7 30.12 1020 3 4.828032 0.01 0.254
5:52 am 05:52 Cloudy with Light Drizzle 41 5 39 4 93 93 N 3 6 30.12 1020 3 4.828032 0.01 0.254
6:24 am 06:24 Cloudy with Light Drizzle 43 6 39 4 87 87 N 5 7 30.12 1020 2.5 4.02336 0 0
6:52 am 06:52 Cloudy with Light Drizzle 43 6 39 4 87 87 N 3 6 30.12 1020 2 3.218688 0.001 0.001
7:00 am 07:00 Cloudy with Light Drizzle 43 6 41 5 93 93 N 3 6 30.15 1021 2 3.218688 0 0
7:05 am 07:05 Cloudy with Light Drizzle 43 6 41 5 93 93 Calm 30.15 1021 2.5 4.02336 0.001 0.001
7:15 am 07:15 Cloudy with Light Drizzle 43 6 41 5 93 93 NE 3 6 30.12 1020 2 3.218688 0.001 0.001
7:17 am 07:17 Cloudy with Light Drizzle 43 6 41 5 93 93 NE 5 7 30.12 1020 2 3.218688 0.001 0.001
7:19 am 07:19 Cloudy with Light Drizzle 41 5 39 4 93 93 NE 5 7 30.12 1020 2 3.218688 0.001 0.001
7:30 am 07:30 Cloudy with Light Drizzle 41 5 39 4 93 93 NE 3 6 30.15 1021 2 3.218688 0 0
7:37 am 07:37 Cloudy with Light Drizzle 41 5 39 4 93 93 NNE 3 6 30.15 1021 2 3.218688 0.001 0.001
7:42 am 07:42 Cloudy with Light Drizzle 41 5 39 4 93 93 NNE 3 6 30.15 1021 2.5 4.02336 0 0
7:49 am 07:49 Cloudy with Light Drizzle 41 5 39 4 93 93 NNE 3 6 30.15 1021 1.75 2.816352 0.001 0.001
7:52 am 07:52 Cloudy with Light Drizzle 41 5 39 4 93 93 NNE 3 6 30.15 1021 1.5 2.414016 0.001 0.001
8:01 am 08:01 Cloudy with Light Drizzle 41 5 39 4 93 93 NNE 3 6 30.15 1021 0.75 1.207008 0.001 0.001
8:20 am 08:20 Cloudy with Light Drizzle 43 6 41 5 93 93 Calm 30.15 1021 0.75 1.207008 0 0
8:22 am 08:22 Cloudy with Light Drizzle 43 6 41 5 93 93 NE 3 6 30.15 1021 1 1.609344 0 0
8:33 am 08:33 Cloudy with Light Drizzle 43 6 41 5 93 93 NE 3 6 30.15 1021 1 1.609344 0.01 0.254
8:52 am 08:52 Cloudy with Light Drizzle 43 6 43 6 100 100 N 3 6 30.15 1021 1 1.609344 0.01 0.254
9:09 am 09:09 Cloudy with Light Drizzle 43 6 43 6 100 100 Calm 30.15 1021 1.75 2.816352 0.001 0.001
9:20 am 09:20 Cloudy with Light Drizzle 43 6 43 6 100 100 Calm 30.15 1021 2 3.218688 0 0
9:44 am 09:44 Cloudy with Light Drizzle 43 6 43 6 100 100 NNE 5 7 30.15 1021 3 4.828032 0 0
9:52 am 09:52 Cloudy with Light Drizzle 43 6 43 6 100 100 NNE 5 7 30.15 1021 2.5 4.02336 0.001 0.001
10:22 am 10:22 Cloudy with Light Drizzle 45 7 43 6 93 93 NNE 5 7 30.15 1021 3 4.828032 0 0
10:52 am 10:52 Cloudy with Light Drizzle 46 8 45 7 93 93 N 3 6 30.15 1021 4 6.437376 0.001 0.001
11:52 am 11:52 Cloudy with Light Drizzle 48 9 45 7 87 87 Calm 30.12 1020 5 8.04672 0.001 0.001
12:00 pm 12:00 Cloudy with Light Drizzle 48 9 45 7 87 87 Calm 30.12 1020 2.5 4.02336 0 0
12:13 pm 12:13 Cloudy with Light Drizzle 46 8 45 7 93 93 NE 3 6 30.12 1020 1.75 2.816352 0.001 0.001
12:46 pm 12:46 Cloudy with Light Drizzle 46 8 45 7 93 93 Calm 30.12 1020 0.75 1.207008 0 0
12:52 pm 12:52 Cloudy with Light Drizzle 46 8 45 7 93 93 ENE 3 6 30.09 1019 0.75 1.207008 0.001 0.001
1:12 pm 13:12 Cloudy with Light Drizzle 46 8 46 8 100 100 NNE 3 6 30.09 1019 1 1.609344 0 0
1:42 pm 13:42 Cloudy with Light Drizzle 48 9 46 8 94 94 NE 5 7 30.06 1018 2 3.218688 0 0
1:48 pm 13:48 Cloudy with Light Drizzle 48 9 46 8 94 94 NNE 6 9 30.06 1018 3 4.828032 0 0
1:52 pm 13:52 Mostly Cloudy with Light Drizzle 48 9 46 8 94 94 NNE 6 9 30.06 1018 3 4.828032 0.001 0.001
2:38 pm 14:38 Cloudy with Light Drizzle 48 9 46 8 94 94 N 5 7 30.06 1018 6 9.656064 0 0
2:52 pm 14:52 Cloudy with Light Drizzle 50 10 46 8 88 88 NNE 5 7 30.06 1018 6 9.656064 0.001 0.001
3:31 pm 15:31 Cloudy 50 10 46 8 88 88 N 5 7 30.06 1018 7 11.265408 0.001 0.001
3:52 pm 15:52 Cloudy 50 10 46 8 88 88 N 6 9 30.06 1018 8 12.874752 0.001 0.001
4:52 pm 16:52 Cloudy 50 10 46 8 88 88 Calm 30.06 1018 8 12.874752 0 0
5:29 pm 17:29 Cloudy 48 9 45 7 87 87 NNE 5 7 30.06 1018 7 11.265408 0 0
5:52 pm 17:52 Cloudy 46 8 45 7 93 93 NNE 7 11 30.06 1018 7 11.265408 0 0
6:11 pm 18:11 Cloudy 46 8 45 7 93 93 NNE 7 11 30.03 1017 7 11.265408 0 0
6:52 pm 18:52 Cloudy 48 9 45 7 87 87 NNE 7 11 30.06 1018 7 11.265408 0 0
7:52 pm 19:52 Cloudy with Mist and Fog 46 8 45 7 93 93 NNE 5 7 30.03 1017 5 8.04672 0 0
8:52 pm 20:52 Cloudy with Mist and Fog 48 9 45 7 87 87 NNE 7 11 29.97 1015 5 8.04672 0 0
9:12 pm 21:12 Cloudy with Mist and Fog 48 9 45 7 87 87 NE 9 15 29.94 1014 6 9.656064 0 0
9:34 pm 21:34 Cloudy with Mist and Fog 48 9 46 8 94 94 NE 8 13 29.94 1014 5 8.04672 0 0
9:39 pm 21:39 Cloudy with Light Rain 48 9 46 8 94 94 NE 6 9 29.94 1014 4 6.437376 0.001 0.001
9:50 pm 21:50 Cloudy with Heavy Rain 48 9 46 8 94 94 NE 7 11 29.94 1014 2 3.218688 0 0
9:52 pm 21:52 Cloudy with Heavy Rain 48 9 46 8 94 94 NE 7 11 29.94 1014 2 3.218688 0.04 1.016
9:59 pm 21:59 Cloudy with Rain 48 9 46 8 94 94 N 6 9 29.94 1014 1.75 2.816352 0.04 1.016
10:04 pm 22:04 Cloudy with Rain 48 9 48 9 100 100 N 5 7 29.94 1014 3 4.828032 0 0
10:52 pm 22:52 Cloudy with Light Rain 48 9 48 9 100 100 NNE 5 7 29.91 1013 4 6.437376 0.12 3.048
11:25 pm 23:25 Cloudy with Light Rain 48 9 48 9 100 100 NE 9 15 29.85 1011 7 11.265408 0.05 1.27
11:52 pm 23:52 Cloudy 50 10 48 9 94 94 ENE 10 17 29.83 1010 7 11.265408 0.05 1.27

Powered by AerisWeather